Regional Weather Roundup
Issued by NWS

Home | Current Version | Previous Version | Graphics & Text | Print | Product List | Glossary On
Versions: 1 2 3 4 5 6 7 8 9 10 11 12 13 14 15 16 17 18 19 20 21 22 23 24 25 26 27
000
ASUS45 KTFX 261610
RWRMT
MONTANA REGIONAL WEATHER ROUNDUP
NATIONAL WEATHER SERVICE GREAT FALLS MT
1000 AM MDT SUN MAR 26 2017

NOTE: "FAIR" INDICATES FEW OR NO CLOUDS BELOW 12000 FEET WITH NO
SIGNIFICANT WEATHER AND/OR OBSTRUCTIONS TO VISIBILITY.

MTZ001>007-043-261700-
WEST OF THE DIVIDE

CITY           SKY/WX    TMP DP  RH WIND       PRES   REMARKS
KALISPELL      SUNNY     39  30  70 S6        29.96F
MISSOULA       MOSUNNY   34  30  85 CALM      29.99F
BUTTE          SUNNY     34  25  69 CALM      29.96F
MULLAN PASS    PTSUNNY   26  26 100 SE8       29.87S FOG     WCI  18
ANACONDA         N/A     39  27  60 SE7       29.96F
DEER LODGE       N/A     36  27  69 CALM      30.00S
EUREKA           N/A     39  30  70 S8        29.95F
HAMILTON         N/A     39  28  65 SW5       29.97F
PLAINS           N/A     36  29  76 CALM      29.99F
RONAN            N/A     40  27  60 CALM      30.00F
THOMPSON FALLS   N/A     36  34  92 E6        30.01F WCI  31
$$

MTZ008-052>055-261700-
SOUTHWEST MONTANA

CITY           SKY/WX    TMP DP  RH WIND       PRES   REMARKS
BOZEMAN        CLOUDY    38  31  76 S3        29.97F
DILLON         SUNNY     38  23  55 S10       29.96F WCI  31
W YELLOWSTONE  PTSUNNY   32  23  69 S7        30.00F WCI  26
ENNIS          CLOUDY    39  28  65 S14       30.01F WCI  31
THREE FORKS      N/A     41  12  30 SE1       29.97F
TWIN BRIDGES     N/A     38  25  60 S3        29.97S
$$

MTZ009-010-012-014-046-048-049-054-261700-
EAST SLOPES AND CENTRAL MONTANA

CITY           SKY/WX    TMP DP  RH WIND       PRES   REMARKS
CUT BANK       MOSUNNY   38  23  55 CALM      29.90F
GREAT FALLS    SUNNY     45  20  36 SW17      29.92F
MALMSTROM AFB  SUNNY     45  22  41 SW12      29.93F
HELENA         SUNNY     43  28  55 E3        29.97S
AUGUSTA          N/A     39  12  33 W12       29.91S WCI  32
BOWMANS CRNR     N/A     41  18  39 SW18      29.90F
CHOTEAU          N/A     41  18  38 VRB5      29.94S
CONRAD           N/A     43  29  58 W8        29.94S
FAIRFIELD        N/A     41  15  33 W8        29.92S
POWER            N/A     40  19  42 SW3       29.92F
RAYNESFORD       N/A     43  17  35 SW21      29.93F
$$

MTZ011-013-016-021-045-047-050-051-261700-
NORTH CENTRAL MONTANA

CITY           SKY/WX    TMP DP  RH WIND       PRES   REMARKS
HAVRE          CLOUDY    41  27  57 SW14      29.94S
LEWISTOWN      PTSUNNY   45  23  42 W13       29.94S
N BAR RANCH      N/A     46  18  31 W10       29.96S
CHINOOK          N/A     43  27  52 W7        29.94S
DENTON           N/A     43  26  49 S8        29.91F
GEYSER         CLOUDY    42  21  44 W14       29.92F
GRASS RANGE      N/A     47  22  37 W3        29.91S
STANFORD         N/A     45  19  35 W14       29.93F
WINIFRED         N/A     42  26  52 NW6       29.93F
$$

MTZ017>020-022>027-061-062-261700-
NORTHEAST MONTANA

CITY           SKY/WX    TMP DP  RH WIND       PRES   REMARKS
GLASGOW        PTSUNNY   43  27  53 NW12      29.93S
JORDAN           N/A     48  30  49 NW9       29.94S
SIDNEY         MOSUNNY   52  36  54 SW8       29.91S
WOLF POINT     MOSUNNY   41  32  70 W6        29.91F
MALTA          SUNNY     43  28  56 SW9       29.94S
PLENTYWOOD       N/A     46  34  61 CALM      29.89F
POPLAR           N/A     43  32  65 W10       29.92R
SCOBEY           N/A     41  27  57 CALM      29.89R
$$

MTZ028>42-056>058-261700-
SOUTHCENTRAL AND SOUTHEAST MONTANA

CITY           SKY/WX    TMP DP  RH WIND       PRES   REMARKS
BAKER          MOSUNNY   47  40  76 SW5       29.94S
BILLINGS       PTSUNNY   43  33  68 S3        29.98R
LIVINGSTON     PTSUNNY   42  32  67 NW7       29.96F
MILES CITY     SUNNY     50  38  63 W7        29.95R
BIG TIMBER     MOSUNNY   41  32  70 W13       29.99S
EKALAKA          N/A     44  40  86 CALM      29.93R
FORSYTH          N/A     45  30  57 W8        29.95S
HARLOWTON        N/A     44  25  47 W21       29.95F
LAUREL           N/A     43  28  55 S2        29.96F
$$

REGIONAL REPORTS...DAKOTAS

CITY           SKY/WX    TMP DP  RH WIND       PRES   REMARKS
WILLISTON      SUNNY     49  34  56 S7        29.90S
MINOT          CLOUDY    51  38  60 CALM      29.90S
DICKINSON      SUNNY     51  35  54 VRB3      29.91S
BEACH            N/A    N/A N/A N/A MISG        N/A
TIOGA            N/A     50  39  66 SW9       29.91S
WATFORD CITY     N/A     50  37  62 SW10      29.90S
BISMARCK       CLOUDY    46  36  68 VRB5      29.94R
GRAND FORKS    CLOUDY    37  35  92 S9        29.94F WCI  30
FARGO          CLOUDY    39  38  96 SE7       29.96S
BUFFALO SD       N/A     50  38  63 NE6       29.86S
RAPID CITY     CLOUDY    42  38  85 N12       29.92R
$$

REGIONAL REPORTS...WYOMING/IDAHO/WASHINGTON

CITY           SKY/WX    TMP DP  RH WIND       PRES   REMARKS
GILLETTE       CLOUDY    42  37  82 N8        29.95R
SHERIDAN       SUNNY     46  39  76 CALM      29.97R
BUFFALO WY     CLOUDY    45  36  70 N9        29.96S
CODY           SUNNY     47  25  42 N5        29.97S
YELLOWSTONE LA   N/A     26  22  84 E5        30.01S
IDAHO FALLS    SUNNY     39  30  70 SW9       30.02F
SALMON         SUNNY     36  25  64 CALM      29.98F
BOISE          MOSUNNY   47  27  45 SE14      29.93F
SPOKANE        PTSUNNY   39  32  76 E7        29.90F
$$

REGIONAL REPORTS...ALBERTA

CITY           SKY/WX    TMP DP  RH WIND       PRES   REMARKS
EDMONTON       SUNNY     36  30  80 W5        29.84S
CALGARY        PTSUNNY   36  16  44 VRB2      29.85S
LETHBRIDGE     MOSUNNY   45  21  39 W20G28    29.88F
MEDICINE HAT   CLOUDY    41  27  56 S12       29.87S
WATERTON GATE    N/A     39  16  38 SW14G21     N/A  WCI  31
CARDSTON         N/A     41  14  33 W12G18      N/A
MILK RIVER       N/A     37  23  56 W12         N/A  WCI  30
$$

REGIONAL REPORTS...SASKATCHEWAN

CITY           SKY/WX    TMP DP  RH WIND       PRES   REMARKS
SWIFT CURRENT  SUNNY     43  25  49 W18       29.83F
REGINA         MOSUNNY   43  30  61 S5        29.87S
SASKATOON      CLOUDY    32  30  93 E13       29.89S WCI  22
CYPRESS HILLS    N/A     41  12  30 W8          N/A
VAL MARIE        N/A     45  27  49 W12         N/A
ROCKGLEN         N/A     46  23  39 SW7         N/A
ASSINIBOIA       N/A     34  30  86 SW2         N/A
$$




USA.gov is the U.S. government's official web portal to all federal, state and local government web resources and services.